This demonstration page uses our WeatherBlox Daily Observations layout. Learn more.

Left ArrowRight Arrow

Hourly Observations for May 1, 2019

Temp ( °F °C ) Dew Point ( °F °C ) Humidity (%) Winds ( mph kmh ) Pressure ( in mb ) Visibility ( mi km ) Precip ( " mm )
12:15 am 00:15 Cloudy 42 5.5 42 5.3 99 99 NNE 13 20 30.01 1016 10 16 N/A
12:35 am 00:35 Cloudy 42 5.3 41 5.2 99 99 NNE 14 22 30.02 1016 10 16 N/A
12:55 am 00:55 Cloudy 42 5.3 41 5.2 99 99 NNE 14 22 30.02 1016 10 16 N/A
1:15 am 01:15 Cloudy 41 5.2 41 5.1 99 99 NE 13 20 30.02 1016 10 16 N/A
1:35 am 01:35 Cloudy 41 5.2 41 5.2 100 100 NNE 10 17 30.02 1016 10 16 N/A
1:50 am 01:50 Cloudy 41 5.2 41 5.2 100 100 NNE 13 20 30.01 1016 10 16 N/A
2:15 am 02:15 Cloudy 41 5.2 41 5.2 100 100 N 10 17 30.01 1016 10 16 N/A
2:35 am 02:35 Cloudy 41 5.1 41 5 99 99 N 10 17 30.02 1016 10 16 N/A
2:55 am 02:55 Cloudy 41 5.1 41 5.1 100 100 N 10 17 30.01 1016 10 16 N/A
3:15 am 03:15 Cloudy 41 5 41 5 100 100 N 10 17 30.01 1016 10 16 N/A
3:35 am 03:35 Cloudy 41 5 41 4.9 99 99 NNE 10 17 30.00 1016 10 16 N/A
3:55 am 03:55 Cloudy 41 4.8 41 4.8 100 100 N 10 17 29.99 1016 10 16 N/A
4:15 am 04:15 Cloudy 40 4.6 40 4.6 100 100 N 13 20 29.98 1015 10 16 N/A
4:35 am 04:35 Cloudy 40 4.6 40 4.6 100 100 NNE 13 20 29.98 1015 10 16 N/A
4:55 am 04:55 Cloudy 40 4.5 40 4.5 100 100 NNE 10 17 29.98 1015 10 16 N/A
5:15 am 05:15 Cloudy 40 4.5 40 4.5 100 100 NNE 8 13 29.98 1015 10 16 N/A
5:35 am 05:35 Cloudy 40 4.5 40 4.5 100 100 NNE 8 13 29.98 1015 10 16 N/A
5:55 am 05:55 Cloudy 40 4.5 40 4.5 100 100 N 8 13 29.98 1015 7 11 N/A
6:15 am 06:15 Cloudy with Mist and Fog 40 4.5 40 4.5 100 100 N 7 11 29.99 1016 5 8 N/A
6:35 am 06:35 Cloudy with Mist and Fog 40 4.5 40 4.5 100 100 N 6 9 30.01 1016 2 2 N/A
6:55 am 06:55 Cloudy with Mist and Fog 40 4.5 40 4.5 100 100 N 7 11 30.01 1016 1 1 N/A
7:15 am 07:15 Cloudy with Fog 40 4.5 40 4.5 100 100 N 6 9 30.02 1017 1 1 N/A
7:35 am 07:35 Cloudy with Fog 40 4.5 40 4.5 100 100 NNE 6 9 30.02 1017 0 0 N/A
7:55 am 07:55 Cloudy with Fog 40 4.7 40 4.7 100 100 NE 6 9 30.02 1017 0 0 N/A
8:15 am 08:15 Cloudy with Fog 41 5 41 5 100 100 ENE 8 13 30.01 1016 0 0 N/A
8:35 am 08:35 Cloudy with Mist and Fog 41 5.1 41 5.1 100 100 NE 8 13 30.02 1016 1 2 N/A
8:55 am 08:55 Cloudy 42 5.3 42 5.3 100 100 ENE 8 13 30.03 1017 7 11 N/A
9:15 am 09:15 Cloudy with Mist and Fog 42 5.8 42 5.8 100 100 ENE 9 15 30.02 1017 5 8 N/A
9:35 am 09:35 Cloudy 44 6.5 44 6.5 100 100 ENE 10 17 30.02 1017 10 16 N/A
9:55 am 09:55 Cloudy 45 7 43 6.2 95 95 E 9 15 30.03 1017 10 16 N/A
10:15 am 10:15 Cloudy 44 6.9 42 5.8 93 93 E 12 19 30.03 1017 10 16 N/A
10:35 am 10:35 Cloudy 45 7.2 43 6.2 93 93 ENE 8 13 30.03 1017 10 16 N/A
10:55 am 10:55 Cloudy 44 6.7 42 5.8 94 94 NE 8 13 30.03 1017 10 16 N/A
11:15 am 11:15 Cloudy 44 6.6 43 5.9 95 95 ENE 8 13 30.04 1017 10 16 N/A
11:35 am 11:35 Cloudy 44 6.6 43 6.1 97 97 ENE 7 11 30.03 1017 10 16 N/A
11:55 am 11:55 Cloudy 44 6.6 43 5.9 95 95 ENE 6 9 30.03 1017 10 16 N/A
12:15 pm 12:15 Cloudy 44 6.9 43 5.9 93 93 NNE 3 6 30.03 1017 10 16 N/A
12:35 pm 12:35 Cloudy 45 7 43 6 93 93 ENE 6 9 30.04 1017 10 16 N/A
12:55 pm 12:55 Cloudy 45 7.2 43 6 92 92 ENE 3 6 30.04 1017 10 16 N/A
1:15 pm 13:15 Cloudy 45 7.1 43 6.1 93 93 N N/A 30.04 1017 10 16 N/A
1:35 pm 13:35 Cloudy 45 7.3 42 5.8 90 90 N N/A 30.04 1017 10 16 N/A
1:55 pm 13:55 Cloudy 46 7.6 43 6 90 90 E 3 6 30.03 1017 10 16 N/A
2:15 pm 14:15 Cloudy 46 7.6 43 6.2 91 91 ENE 5 7 30.04 1017 10 16 N/A
2:35 pm 14:35 Cloudy 46 7.7 43 6.2 90 90 NNE 5 7 30.04 1017 10 16 N/A
2:55 pm 14:55 Cloudy 46 7.8 43 6 89 89 N N/A 30.04 1017 10 16 N/A
3:15 pm 15:15 Cloudy 47 8.1 43 6 87 87 NE 6 9 30.04 1017 10 16 N/A
3:35 pm 15:35 Cloudy 46 8 43 6.2 89 89 N 7 11 30.04 1017 10 16 N/A
3:55 pm 15:55 Cloudy 46 7.9 43 6.2 89 89 NNE 9 15 30.04 1017 10 16 N/A
4:15 pm 16:15 Cloudy 46 8 43 6.2 89 89 NNE 5 7 30.05 1018 10 16 N/A
4:35 pm 16:35 Cloudy 46 8 43 6.1 88 88 NE 3 6 30.06 1018 10 16 N/A
4:55 pm 16:55 Cloudy 47 8.2 43 6.3 88 88 NNE 5 7 30.06 1018 10 16 N/A
5:15 pm 17:15 Cloudy 46 8 44 6.4 90 90 NNE 10 17 30.06 1018 7 11 N/A
5:35 pm 17:35 Cloudy 46 7.7 44 6.5 92 92 NNE 7 11 30.07 1018 7 11 N/A
5:55 pm 17:55 Cloudy 46 8 44 6.6 91 91 NNE 6 9 30.08 1019 7 11 N/A
6:15 pm 18:15 Cloudy 46 8 44 6.4 90 90 N 10 17 30.08 1019 10 16 N/A
6:35 pm 18:35 Cloudy 46 8 43 6.2 89 89 NNE 9 15 30.09 1019 10 16 N/A
6:55 pm 18:55 Cloudy 46 8 43 6.1 88 88 NNE 8 13 30.09 1019 10 16 N/A
7:15 pm 19:15 Cloudy 46 8 43 6 87 87 N 9 15 30.10 1019 10 16 N/A
7:35 pm 19:35 Cloudy 46 8 43 6.1 88 88 NNE 8 13 30.10 1019 10 16 N/A
7:55 pm 19:55 Cloudy 46 7.8 43 6.1 89 89 N 7 11 30.10 1019 10 16 N/A
8:15 pm 20:15 Cloudy 46 7.6 43 6.1 90 90 N 8 13 30.11 1020 10 16 N/A
8:35 pm 20:35 Cloudy 45 7.4 43 6 91 91 N 8 13 30.12 1020 10 16 N/A
8:55 pm 20:55 Cloudy 45 7.2 43 6 92 92 N 5 7 30.15 1021 10 16 N/A
9:15 pm 21:15 Cloudy 45 7.2 43 6 92 92 NNE 3 6 30.16 1021 10 16 N/A
9:35 pm 21:35 Cloudy 45 7.1 43 6.2 94 94 N 9 15 30.16 1021 10 16 N/A
9:55 pm 21:55 Cloudy 45 7 44 6.5 97 97 N N/A 30.19 1022 10 16 N/A
10:15 pm 22:15 Cloudy 45 7 44 6.5 97 97 N N/A 30.22 1023 10 16 N/A
10:35 pm 22:35 Cloudy with Drizzle 45 7 44 6.5 97 97 SE 5 7 30.21 1023 10 16 N/A
10:55 pm 22:55 Cloudy with Drizzle 44 6.6 44 6.5 99 99 N N/A 30.22 1023 7 11 N/A
11:15 pm 23:15 Cloudy 44 6.5 44 6.5 100 100 N N/A 30.20 1023 10 16 N/A
11:35 pm 23:35 Cloudy 43 6.3 43 6.3 100 100 N 5 7 30.19 1022 7 11 N/A
11:55 pm 23:55 Cloudy with Drizzle 44 6.5 44 6.5 100 100 NNE 9 15 30.18 1022 4 6 N/A

Powered by AerisWeather